Weather History for KGOK - January, 2013

Change the Weather History Date:

Tuesday, January 1, 2013

  Actual Average Record
Temperature  
Mean Temperature 30 °F -  
Max Temperature 37 °F 45 °F 81 °F (1952)
Min Temperature 24 °F 25 °F 4 °F (1959)
Degree Days  
Heating Degree Days 34    
Moisture  
Dew Point 26 °F    
Average Humidity 86    
Maximum Humidity 93    
Minimum Humidity 78    
Precipitation  
Precipitation 0.00 in - - ()
Sea Level Pressure  
Sea Level Pressure 30.23 in    
Wind  
Wind Speed 7 mph (NNW)    
Max Wind Speed 10 mph    
Max Gust Speed 18 mph    
Visibility 4 miles    
Events Snow    
Averages and records for this station are not official NWS values.
T = Trace of Precipitation, MM = Missing Value Source: NWS Daily Summary

Daily Weather History Graph

Daily Weather History Graph

Search for Another Location

Airport or City:

Trip Planner

Search our weather history database for the weather conditions in past years. The results will help you decide how hot, cold, wet, or windy it might be!

Date:

Astronomy

Jan. 01, 2013 Rise Set
Actual Time 7:39 AM CST 5:27 PM CST
Civil Twilight 7:11 AM CST 5:55 PM CST
Nautical Twilight 6:39 AM CST 6:27 PM CST
Astronomical Twilight 6:08 AM CST 6:58 PM CST
Moon 9:49 PM CST (1/1) 10:01 AM CST (1/1)
Length of Visible Light 10h 43m
Length of Day
9h 47m
Waning Gibbous, 83% of the Moon is Illuminated
Jan 1
Waning Gibbous
Jan 4
Last Quarter
Jan 11
New
Jan 18
First Quarter
Jan 26
Full

Hourly Weather History & Observations

Time (CST) Temp. Windchill Dew Point Humidity Pressure Visibility Wind Dir Wind Speed Gust Speed Precip Events Conditions
12:06 AM 37.4 °F 30.8 °F 35.6 °F 93% 30.08 in 3.0 mi NNW 9.2 mph - N/A   Overcast
12:15 AM 37.4 °F 32.1 °F 35.6 °F 93% 30.07 in 2.5 mi NNW 6.9 mph - N/A   Overcast
12:22 AM 37.4 °F 30.3 °F 35.6 °F 93% 30.07 in 3.0 mi NNW 10.4 mph 16.1 mph N/A   Overcast
12:53 AM 36.0 °F 29.0 °F 34.0 °F 93% 30.10 in 3.0 mi North 9.2 mph - N/A   Overcast
1:53 AM 35.1 °F 28.6 °F 32.0 °F 89% 30.10 in 4.0 mi NNW 8.1 mph - N/A   Overcast
2:35 AM 33.8 °F 25.8 °F 30.2 °F 87% 30.08 in 2.5 mi NNW 10.4 mph 18.4 mph N/A   Overcast
2:53 AM 32.0 °F 26.4 °F 28.9 °F 88% 30.13 in 2.5 mi NNW 5.8 mph 16.1 mph N/A   Overcast
3:53 AM 30.9 °F 26.2 °F 28.9 °F 92% 30.17 in 2.5 mi NW 4.6 mph - N/A   Overcast
4:53 AM 30.0 °F 23.2 °F 28.0 °F 92% 30.18 in 2.5 mi NW 6.9 mph - 0.00 in Snow Light Snow
5:07 AM 30.2 °F 24.3 °F 28.4 °F 93% 30.16 in 1.5 mi NW 5.8 mph - 0.00 in Snow Light Snow
5:14 AM 30.2 °F 23.4 °F 28.4 °F 93% 30.15 in 1.2 mi NW 6.9 mph - 0.00 in Snow Light Snow
5:32 AM 30.2 °F 22.6 °F 26.6 °F 86% 30.17 in 3.0 mi NW 8.1 mph - 0.00 in   Overcast
5:53 AM 30.0 °F 24.1 °F 27.0 °F 88% 30.20 in 4.0 mi NNW 5.8 mph - 0.00 in   Overcast
6:13 AM 30.2 °F 23.4 °F 26.6 °F 86% 30.18 in 1.8 mi NNW 6.9 mph - 0.00 in Snow Light Snow
6:53 AM 30.0 °F 25.2 °F 27.0 °F 88% 30.21 in 2.5 mi NNW 4.6 mph - 0.00 in   Overcast
7:03 AM 30.2 °F 23.4 °F 26.6 °F 86% 30.18 in 3.0 mi NNW 6.9 mph - N/A   Overcast
7:53 AM 28.9 °F 21.9 °F 26.1 °F 89% 30.24 in 4.0 mi NW 6.9 mph - N/A   Overcast
8:53 AM 28.9 °F 22.8 °F 25.0 °F 85% 30.26 in 3.0 mi NNW 5.8 mph - N/A   Overcast
9:53 AM 30.0 °F 25.2 °F 26.1 °F 85% 30.29 in 3.0 mi NNW 4.6 mph - N/A   Overcast
10:07 AM 30.2 °F 23.4 °F 24.8 °F 80% 30.26 in 4.0 mi North 6.9 mph - N/A   Haze
10:53 AM 30.0 °F 24.1 °F 25.0 °F 82% 30.30 in 4.0 mi North 5.8 mph - N/A   Haze
11:53 AM 30.0 °F 24.1 °F 24.1 °F 79% 30.30 in 5.0 mi Variable 5.8 mph - N/A   Haze
12:53 PM 30.0 °F 23.2 °F 24.1 °F 79% 30.30 in 4.0 mi NW 6.9 mph - N/A   Haze
1:53 PM 30.0 °F 23.2 °F 24.1 °F 79% 30.29 in 5.0 mi NNW 6.9 mph - N/A   Haze
2:53 PM 30.0 °F 23.2 °F 24.1 °F 79% 30.28 in 5.0 mi NNW 6.9 mph - N/A   Haze
3:53 PM 30.0 °F 26.5 °F 24.1 °F 79% 30.29 in 5.0 mi Variable 3.5 mph - N/A   Haze
4:53 PM 28.9 °F 21.9 °F 24.1 °F 82% 30.30 in 6.0 mi NNW 6.9 mph - N/A   Haze
5:53 PM 28.9 °F 23.9 °F 23.0 °F 78% 30.31 in 8.0 mi NNW 4.6 mph - N/A   Overcast
6:53 PM 28.0 °F 24.2 °F 23.0 °F 81% 30.32 in 7.0 mi Variable 3.5 mph - N/A   Overcast
7:21 PM 28.4 °F 24.6 °F 23.0 °F 80% 30.27 in 7.0 mi Variable 3.5 mph - N/A   Mostly Cloudy
7:33 PM 26.6 °F 22.6 °F 23.0 °F 86% 30.28 in 7.0 mi North 3.5 mph - N/A   Scattered Clouds
7:53 PM 27.0 °F - 21.9 °F 81% 30.32 in 6.0 mi Calm Calm - N/A   Haze
8:53 PM 25.0 °F 19.3 °F 21.9 °F 88% 30.34 in 5.0 mi NW 4.6 mph - N/A   Clear
9:53 PM 25.0 °F - 21.0 °F 85% 30.33 in 4.0 mi Calm Calm - N/A   Clear
10:53 PM 24.1 °F - 21.0 °F 88% 30.33 in 4.0 mi Calm Calm - N/A   Scattered Clouds
11:01 PM 24.8 °F - 21.2 °F 86% 30.29 in 3.0 mi Calm Calm - N/A   Mostly Cloudy
11:13 PM 24.8 °F - 21.2 °F 86% 30.30 in 4.0 mi Calm Calm - N/A   Scattered Clouds
11:53 PM 24.1 °F - 19.9 °F 84% 30.34 in 3.0 mi Calm Calm - N/A   Clear